Regional Weather Roundup
Issued by NWS Huntsville, AL

Home | Current Version | Previous Version | Text Only | Print | Product List | Glossary On
Versions: 1 2 3 4 5 6 7 8 9 10 11 12 13 14 15 16 17 18 19 20 21 22 23 24 25 26 27 28 29 30 31 32 33 34 35 36 37 38 39 40 41 42 43 44 45 46 47 48 49 50
000
ASUS44 KHUN 082310
RWRHUN

WEATHER ROUNDUP FOR THE TENNESSEE VALLEY
NATIONAL WEATHER SERVICE HUNTSVILLE AL
500 PM CST MON FEB 08 2016

ALZ001>004-090000-
NORTHWEST ALABAMA

CITY           SKY/WX    TMP DP  RH WIND       PRES   REMARKS
SHOALS AIRPORT CLOUDY    41  20  43 W17       29.91S
SHOALS TVA RES   N/A     39 N/A N/A MISG        N/A
$$

ALZ005>007-016-090000-
NORTH CENTRAL ALABAMA

CITY           SKY/WX    TMP DP  RH WIND       PRES   REMARKS
CULLMAN AG STN   N/A     41 N/A N/A W13         N/A
DECATUR AP     CLOUDY    40  21  46 NW15G25   29.90R WCI  32
HUNTSVILLE AP  CLOUDY    41  19  41 NW20G29   29.88R
HUN NWS/UAH      N/A     40  19  43 NW12        N/A  WCI  33
MERIDIANVILLE  CLOUDY    37  21  52 NW15G22   29.87R WCI  28
VINEMONT AP    FAIR      39  23  53 NW10G16   29.90R WCI  32
$$

ALZ008>010-090000-
NORTHEAST ALABAMA

CITY           SKY/WX    TMP DP  RH WIND       PRES   REMARKS
ALBERTVILLE    CLOUDY    41  30  65 W13G21    29.83R
FORT PAYNE     CLOUDY    41  21  45 W17G28    29.82R
SCOTTSBORO AP  LGT RAIN  41  27  56 W12G23    29.85R
SCOTTSBORO HCN   N/A     41 N/A N/A MISG        N/A
VALLEY HEAD      N/A     41 N/A N/A MISG        N/A
$$

TNZ076-096-097-090000-
SOUTHEASTERN MIDDLE TENNESSEE

CITY           SKY/WX    TMP DP  RH WIND       PRES   REMARKS
TULLAHOMA      CLOUDY    30  25  80 W13       29.85R WCI  20
WINCHESTER     CLOUDY    34  27  75 NW13      29.86R WCI  25
$$

...SURROUNDING SITES...

CITY           SKY/WX    TMP DP  RH WIND       PRES   REMARKS
ATLANTA        MOCLDY    47  21  35 NW21G26   29.77R
ANNISTON       CLOUDY    47  22  37 W8G18     29.83R
BIRMINGHAM     CLOUDY    46  23  40 NW18G26   29.89R
CHATTANOOGA    CLOUDY    43  20  39 W13G22    29.80S
DALTON         NOT AVBL
GADSDEN        MOCLDY    44  25  47 W13       29.85R
GOLDEN TRNGL   CLOUDY    43  21  42 NW17G29   29.97R
HALEYVILLE     CLOUDY    39  20  46 NW9G20    29.92R WCI  33
JACKSON TN     CLOUDY    37  23  56 NW16G28   29.95R WCI  28
MEMPHIS        CLOUDY    41  23  48 NW23G44   29.97R
NASHVILLE      FLURRIES  33  26  75 W10       29.87R WCI  25
OXFORD MS      FAIR      41  18  38 W15       29.98S
ROME           CLOUDY    44  22  41 W10       29.81R
TUPELO         CLOUDY    43  20  39 SW10G20   29.95S
TUSCALOOSA     CLOUDY    46  21  37 NW16G29   29.94R
$$

...GULF COAST WEATHER...

CITY           SKY/WX    TMP DP  RH WIND       PRES   REMARKS
GULFPORT       CLEAR     55  18  23 NW15G25   29.96R
PASCAGOULA     CLEAR     55  17  22 NW14G28   29.95R
MOBILE         PTCLDY    53  19  26 NW17G26   29.94R
GULF SHORES    CLEAR     55  21  27 W12G18    29.92R
PENSACOLA      PTCLDY    55  16  21 W13       29.89R
DESTIN         CLEAR     58  22  24 NW10G21   29.86R
PANAMA CITY    CLEAR     57  40  51 W22G28    29.84F
APPALACHICOLA  PTCLDY    58  34  40 W24G36    29.85R
$$




USA.gov is the U.S. government's official web portal to all federal, state and local government web resources and services.